Tracking 29594 objects as of 20-Sep-2024
HD Live streaming from Space Station
objects crossing your sky now

N-1 DEB

Track N-1 DEB now!
10-day predictions


NORAD ID: 14569
Int'l Code: 1982-087D
Perigee: 966.9 km
Apogee: 1,149.4 km
Inclination: 44.8 °
Period: 106.2 minutes
Semi major axis: 7429 km
RCS: 0.0651 m2 (small)
Launch date: September 3, 1982
Source: Japan (JPN)
Launch site: TANEGASHIMA SPACE CENTER (TNSTA)

Note: This is SATELLITE DEBRIS
Your satellite tracking list
Your tracking list is empty




NASA's NSSDC Master Catalog

Two Line Element Set (TLE):
1 14569U 82087D   24264.10527836 -.00000006  00000-0  14783-3 0  9993
2 14569  44.8415 167.6630 0122784 351.2254 144.2678 13.55794219118499
Source of the keplerian elements: AFSPC